Regional Weather Roundup
Issued by NWS

Home | Current Version | Previous Version | Text Only | Print | Product List | Glossary On
Versions: 1 2 3 4 5 6 7 8 9 10 11 12 13 14 15 16 17 18 19 20 21 22 23 24 25 26 27 28 29 30 31 32 33 34 35 36 37 38 39 40 41 42 43 44 45 46 47 48
000
ASUS46 KSEW 271410
RWRWA

WASHINGTON REGIONAL WEATHER ROUNDUP
NATIONAL WEATHER SERVICE SEATTLE WA
600 AM PST TUE JAN 27 2015

NOTE:"FAIR" INDICATES FEW OR NO CLOUDS BELOW 12,000 FEET WITH NO
SIGNIFICANT WEATHER AND/OR OBSTRUCTIONS TO VISIBILITY.

WAZ505-507>509-271500-
SEATTLE, TACOMA, EVERETT, AND VICINITY

CITY           SKY/WX    TMP DP  RH WIND       PRES   REMARKS
EVERETT        CLOUDY    49  45  86 S6        30.00R
BOEING FIELD   CLOUDY    52  46  80 SE6       30.01R
RENTON         CLOUDY    49  46  90 CALM      30.01R
SEATAC AIRPORT CLOUDY    50  46  86 S3        30.01R
JBLM-MCCHORD   FOG       45  45 100 S2        30.01S VSB 1
PUYALLUP       CLOUDY    48  48 100 CALM      30.01R
BREMERTON      CLOUDY    45  43  93 CALM      30.02R
JBLM-FT LEWIS  MOCLDY    44  44 100 S5        30.01R
TACOMA NARROWS CLOUDY    49  46  90 S6        30.01R
$$

WAZ001-503-506-510-514-515-271500-
NORTH INTERIOR

CITY           SKY/WX    TMP DP  RH WIND       PRES   REMARKS
BELLINGHAM     CLOUDY    45  43  93 CALM      29.97F
FRIDAY HARBOR  CLOUDY    44  43  96 CALM      29.99S FOG
EASTSOUND      CLOUDY    46  46 100 CALM      29.96S
PORT ANGELES   CLOUDY    47  42  83 SW6       29.98R
NAS WHIDBEY    CLOUDY    51  46  83 SE3       30.00R
ARLINGTON      CLOUDY    46  41  81 CALM      30.01R
BURLINGTON     CLOUDY    48  48 100 CALM      30.00S
$$

WAZ020-022-039-040-504-511-512-271500-
SOUTHWEST INTERIOR

CITY           SKY/WX    TMP DP  RH WIND       PRES   REMARKS
SHELTON        CLOUDY    49  46  90 SW12      29.97R
OLYMPIA        CLOUDY    40  40 100 CALM      30.01R FOG
CHEHALIS       FOG       45  45 100 SW5       30.02S VSB 1/4
KELSO          CLOUDY    45  43  93 S7        30.06S
VANCOUVER      CLOUDY    42  41  96 SE3       30.05R FOG
SCAPPOOSE, OR  FOG       43  42  97 CALM      30.04R VSB 1/4
PORTLAND, OR   DRZL/FOG  42  42 100 SE6       30.05R VSB 1/2
$$

WAZ021-516-517-271500-
WASHINGTON COAST

CITY           SKY/WX    TMP DP  RH WIND       PRES   REMARKS
FORKS          CLOUDY    49  49 100 SE3       29.99R FOG
HOQUIAM        CLOUDY    50  49  96 CALM      30.00S FOG
ASTORIA, OR    CLOUDY    47  46  97 CALM      30.01S
$$

WAZ019-023-024-040-518-519-271500-
CASCADE MOUNTAINS AND COLUMBIA GORGE

CITY           SKY/WX    TMP DP  RH WIND       PRES   REMARKS
TROUTDALE, OR  CLOUDY    42  40  92 CALM      30.04S
THE DALLES, OR CLOUDY    39  38  96 E5        30.04R
$$

WAZ026-027-041>044-520-521-271500-
EAST SLOPES

CITY           SKY/WX    TMP DP  RH WIND       PRES   REMARKS
OMAK           FOG       32  31  96 CALM      30.01F VSB 1/2
WENATCHEE      FOG       33  32  96 CALM      30.01S VSB 1/4
ELLENSBURG     FOG       33  30  88 MISG      29.98S VSB 1/4
YAKIMA         FOG       33  31  92 SW3       30.01F VSB 1/4
$$

WAZ028-034-035-271500-
COLUMBIA BASIN

CITY           SKY/WX    TMP DP  RH WIND       PRES   REMARKS
EPHRATA        CLOUDY    33  33 100 SW3       29.99S FOG
MOSES LAKE     FOG       34  33  96 CALM      30.01S VSB 1/4
PASCO          CLOUDY    37  37 100 SE5       30.05S
HERMISTON, OR  FOG       35  34  96 CALM      30.03S VSB 1/4
$$

WAZ036>038-271500-
NORTHEAST WASHINGTON

CITY           SKY/WX    TMP DP  RH WIND       PRES   REMARKS
SPOKANE GEIGER FOG       30  30 100 NE6       29.97F VSB 1/8
SPOKANE FELTS  CLOUDY    32  29  88 E3        30.01F FOG
FAIRCHILD AFB  FOG       28  28 100 NE6       29.96F VSB 1
COEURDALENE,ID CLEAR     28  27  93 NE7       29.99S
DEER PARK      FOG       25  24  96 CALM      29.99F VSB 1/4
$$

WAZ029>033-271500-
SOUTHEAST WASHINGTON

CITY           SKY/WX    TMP DP  RH WIND       PRES   REMARKS
PULLMAN        MOCLDY    41  34  76 E8        30.00R
LEWISTON, ID   MOCLDY    40  35  83 E6        30.01R
WALLA WALLA    FOG       33  32  96 CALM      30.00F VSB 1/4
PENDLETON, OR  FOG       31  30  96 CALM      29.99R VSB<1/4
$$


USA.gov is the U.S. government's official web portal to all federal, state and local government web resources and services.